San Jose, Costa Rica

10:29 PM CST on August 17, 2017 (GMT -0600)
Juan Santamaria International

Weather History for MROC - October, 2012

Change the Weather History Date:

Saturday, October 20, 2012

  Actual Average Record
Temperature  
Mean Temperature 73 °F -  
Max Temperature 79 °F 78 °F 86 °F (1997)
Min Temperature 67 °F 64 °F 60 °F (1996)
Cooling Degree Days 8    
Growing Degree Days 23 (Base 50)    
Moisture  
Dew Point 67 °F    
Average Humidity 87    
Maximum Humidity 94    
Minimum Humidity 61    
Precipitation  
Precipitation 0.16 in 0.26 in - ()
Sea Level Pressure  
Sea Level Pressure 29.93 in    
Wind  
Wind Speed 3 mph ()    
Max Wind Speed 13 mph    
Max Gust Speed -    
Visibility 4.2 miles    
Events Fog , Rain    
Averages and records for this station are not official NWS values.
T = Trace of Precipitation, MM = Missing Value Source: Averaged Metar Reports

Daily Weather History Graph

Daily Weather History Graph

Search for Another Location

Airport or City:

Trip Planner

Search our weather history database for the weather conditions in past years. The results will help you decide how hot, cold, wet, or windy it might be!

Date:

Astronomy

Oct. 20, 2012 Rise Set
Actual Time 5:25 AM CST 5:17 PM CST
Civil Twilight 5:04 AM CST 5:38 PM CST
Nautical Twilight 4:39 AM CST 6:03 PM CST
Astronomical Twilight 4:15 AM CST 6:27 PM CST
Moon 10:30 AM CST (10/20) 10:28 PM CST (10/20)
Length of Visible Light 12h 34m
Length of Day
11h 51m
Waxing Crescent, 35% of the Moon is Illuminated
Oct 20
Waxing Crescent
Oct 21
First Quarter
Oct 29
Full
Nov 6
Last Quarter
Nov 13
New

Hourly Weather History & Observations

Time (CST) Temp. Dew Point Humidity Pressure Visibility Wind Dir Wind Speed Gust Speed Precip Events Conditions
12:00 AM 67 °F 66 °F 94% 29.83 in 0 mi SW 1.2 mph - - Fog Partial Fog
12:00 AM 68.0 °F 66.2 °F 94% 30.00 in 0.3 mi SW 1.2 mph - N/A Fog Light Drizzle
12:25 AM 68.0 °F 66.2 °F 94% 30.00 in 0.7 mi South 2.3 mph - N/A   Light Drizzle
1:00 AM 68.0 °F 66.2 °F 94% 29.98 in 0.7 mi West 2.3 mph - N/A   Drizzle
2:00 AM 68.0 °F 66.2 °F 94% 29.98 in 1.9 mi NW 2.3 mph - N/A   Drizzle
3:00 AM 67 °F 66 °F 94% 29.83 in 3 mi Calm Calm - -   Mist
3:00 AM 68.0 °F 66.2 °F 94% 29.97 in 3.1 mi Calm Calm - N/A   Light Drizzle
4:00 AM 68.0 °F 66.2 °F 94% 29.97 in 6.2 mi ESE 1.2 mph - N/A Fog Light Drizzle
5:00 AM 68.0 °F 66.2 °F 94% 29.98 in 5.0 mi West 2.3 mph - N/A Fog Drizzle
6:00 AM 68 °F 66 °F 91% 29.86 in 9 mi ENE 3.5 mph - -   Scattered Clouds
6:00 AM 68.0 °F 66.2 °F 94% 29.99 in 6.2 mi ENE 3.5 mph - N/A   Mostly Cloudy
7:00 AM 75.2 °F 66.2 °F 73% 30.01 in 6.2 mi SSW 3.5 mph - N/A Fog Mostly Cloudy
7:13 AM 69.8 °F 66.2 °F 88% 30.01 in 6.2 mi SW 5.8 mph - N/A Fog Mostly Cloudy
8:00 AM 71.6 °F 68.0 °F 88% 29.99 in 5.0 mi WSW 4.6 mph - N/A Fog Fog
9:00 AM 74 °F 67 °F 74% 29.85 in 3 mi WSW 4.6 mph - - Fog Patches of Fog
9:00 AM 75.2 °F 68.0 °F 78% 30.00 in 6.2 mi WSW 4.6 mph - N/A Fog Scattered Clouds
10:00 AM 77.0 °F 68.0 °F 74% 29.99 in 6.2 mi WSW 5.8 mph - N/A   Scattered Clouds
11:00 AM 77.0 °F 68.0 °F 74% 29.97 in 6.2 mi WSW 9.2 mph - N/A   Scattered Clouds
12:00 PM 79 °F 68 °F 61% 29.81 in 9 mi WSW 10.4 mph - -   Partly Cloudy
12:00 PM 78.8 °F 68.0 °F 69% 29.94 in 6.2 mi WSW 10.4 mph - N/A   Scattered Clouds
1:00 PM 77.0 °F 68.0 °F 74% 29.91 in 6.2 mi WSW 11.5 mph - N/A   Scattered Clouds
1:31 PM 73.4 °F 68.0 °F 83% 29.90 in 6.2 mi WSW 12.7 mph - N/A   Scattered Clouds
2:00 PM 73.4 °F 66.2 °F 78% 29.89 in 4.3 mi West 9.2 mph - N/A Rain Light Rain Showers
3:00 PM - - %  in 6 mi West 5.8 mph - -  
3:00 PM 71.6 °F 68.0 °F 88% 29.89 in 6.2 mi West 5.8 mph - N/A   Mostly Cloudy
4:00 PM 69.8 °F 68.0 °F 94% 29.89 in 3.1 mi SW 8.1 mph - N/A Rain Rain
5:00 PM 69.8 °F 66.2 °F 88% 29.90 in 5.0 mi SW 8.1 mph - N/A Rain Light Rain
6:00 PM 69 °F 67 °F 90% 29.79 in 2 mi SW 4.6 mph - - Rain Light Rain
6:00 PM 68.0 °F 66.2 °F 94% 29.93 in 1.9 mi SW 4.6 mph - N/A Rain Light Rain
7:00 PM 68.0 °F 66.2 °F 94% 29.94 in 3.1 mi WSW 3.5 mph - N/A Rain Light Rain
8:00 PM 69.8 °F 66.2 °F 88% 29.97 in 3.1 mi WSW 3.5 mph - N/A   Overcast
9:00 PM 69 °F 67 °F 90% 29.83 in 3 mi Calm Calm - - Fog Light Fog
9:00 PM 69.8 °F 66.2 °F 88% 29.97 in 3.1 mi Calm Calm - N/A   Mostly Cloudy
10:00 PM 68.0 °F 66.2 °F 94% 29.97 in 1.9 mi WSW 4.6 mph - N/A   Mostly Cloudy
11:00 PM 68.0 °F 66.2 °F 94% 29.98 in 1.9 mi South 2.3 mph - N/A   Mostly Cloudy